{"data":{"norad_id":59190,"intl_designator":"2024-045N","name":"STARLINK-31563","alt_names":[],"object_type":"PAYLOAD","status":"ACTIVE","operator":null,"country":"US","launch_date":"2024-03-10","launch_site_code":"AFETR","launch_vehicle":null,"mission":null,"orbit_class":"UNKNOWN","rcs_meters":null,"size_class":null,"mass_kg":null,"dimensions":null,"purposes":["comms"],"wikipedia_slug":null,"has_3d_model":false,"image_url":null,"decayed_at":null,"tle_current":{"epoch":"2026-09-20T14:32:41.494848Z","epoch_age_seconds":149696,"freshness":"FRESH","line1":"1 59190U 24045N   26263.60603582 -.00000492  00000+0 -83618-5 0  9995","line2":"2 59190  43.0033  71.5550 0001416 267.2423  92.8267 15.27573166142970","mean_motion":15.27573166,"eccentricity":0.0001416,"inclination_deg":43.0033,"raan_deg":71.555,"arg_perigee_deg":267.2423,"mean_anomaly_deg":92.8267,"bstar":-8.3618e-6,"rev_number":14297,"period_min":94.267170440725,"perigee_km":482.09801272163,"apogee_km":484.0411064193,"semimajor_km":6861.2065595705,"source":"CELESTRAK","updated_at":"2026-09-21T09:00:34.064399Z"}}}